Location: Babice
(50.3480°N, 22.9363°E)
Time: 12:40:30
(UTC+00:00)

SL-16 R/B - Pass Details

Date: 14 July 2020
Orbit: 985 x 1006 km, 99.5° (Epoch: 08 August)

Event Time Altitude Azimuth Distance (km) Brightness Sun altitude
Exits shadow 00:11:55 16° 172° (S) 2,375 4.0 -14.8°
Maximum altitude 00:17:05 72° 256° (WSW) 1,056 2.6 -14.5°
Drops below altitude 10° 00:23:22 10° 341° (NNW) 2,794 5.5 -14.1°
Sets 00:25:53 0° 343° (NNW) 3,749 6.3 -13.9°
